Retour au catalogue

IRIDIUM 128

ActifCommunicationsPO
NORAD 42811·PAYLOAD·🇺🇸 United States

Lancé Jun 25, 2017 depuis Vandenberg Space Force Base

Loading…

Prochains Passages (prochaines 24 heures)

TLE

FraisSource: CelesTrak SupGP

Époque: Sep 14, 2026, 21:19 UTC

1 42811C 17039J   26257.88854167 -.00002480  00000+0 -88657-3 0  2574
2 42811  86.4026 347.6665 0002176  95.1563  43.4931 14.34220336    19

Suivez IRIDIUM 128 en temps réel avec AllMySat

Download on the App Store